Terminal Aerodrome Forecast
Issued by NWS Charleston, WV

Home | Current Version | Previous Version | Text Only | Print | Product List | Glossary On
Versions: 1 2 3 4 5 6 7 8 9 10 11 12 13 14 15 16 17 18 19 20 21 22 23 24 25 26 27 28 29 30 31
000
FTUS41 KRLX 220823 AAA
TAFEKN
TAF AMD
KEKN 220823Z 2208/2306 24006KT P6SM -RA BKN040
     FM221100 29007KT P6SM -RA BKN035
     FM221200 30010G22KT 6SM -SN BR BKN025
     FM221300 30008G16KT P6SM -SN BKN015
     FM221700 31007KT P6SM SCT020
     FM230100 32003KT P6SM SCT025=

USA.gov is the U.S. government's official web portal to all federal, state and local government web resources and services.